Back to catalog

GORIZONT 15

AliveCommunicationsGEO
NORAD 19017·PAYLOAD·🇷🇺 Russia

Launched Mar 31, 1988 from Baikonur Cosmodrome

Loading…

TLE

FreshSource: Space-Track

Epoch: Sep 14, 2026, 14:21 UTC

1 19017U 88028A   26257.59841444 -.00000126  00000-0  00000-0 0  9995
2 19017  12.6051 330.4703 0033815 199.5074 156.2865  0.97828486120378

Track GORIZONT 15 in real time with AllMySat

Download on the App Store